Location: Grossmotten
(48.5500°N, 15.3833°E)
Time: 18:02:33
(UTC+00:00)

SL-16 R/B - Pass Details

Date: 15 November 2019
Orbit: 842 x 846 km, 71.0° (Epoch: 11 December)

Event Time Altitude Azimuth Distance (km) Brightness Sun altitude
Exits shadow 03:37:11 15° 345° (NNW) 2,117 4.1 -24.5°
Maximum altitude 03:41:37 47° 54° (NE) 1,117 3.1 -23.7°
Drops below altitude 10° 03:47:04 10° 128° (SE) 2,465 5.3 -22.8°
Sets 03:49:36 0° 134° (SE) 3,396 6.1 -22.4°
